Showing default

QIANFAN-164, 69326

Orbit data source: Space-Track

QIANFAN-164, 69326 is a Chinese payload satellite in LEO that was launched on Mon, 01 Jun 2026 UTC via a CHANG ZHENG 12B launch vehicle from the Jiuquan Satellite Launch Center, China (JSC). Payload-class satellites include a variety of spacecraft equipped with specific instruments for various scientific and technological missions. These include communications satellites like Starlink; space stations such as the ISS; scientific satellites like the Hubble; Earth observation satellites from companies like Planet Labs, Umbra, and HawkEye 360; GPS; miniature CubeSats for education and research; and military/defense satellites.

Loading next visibility...
Identifier
69326, 2026-121B
Orbit
LEO
Country
Flag of CNCN / PRC
Related business
Manufacturer
GESIH
Mission
Operational spacecraft
Bus & Motor
QIANFAN, Unknown motor
Mass
267 kg wet, ~267 kg dry
Launch date (UTC)
2026-06-01 (1 week ago)
Launch vehicle
CHANG ZHENG 12B
Launch site
Jiuquan Satellite Launch Center, China (JSC)
Object type
Payload
Rocket body
Debris
Shape & HBR
Unknown
Radar Cross Section
Large (>1 m²)

Expand to show TLE details & history
Last TLE update: 6 days ago

TLE from 6 days ago
0 QIANFAN-164
1 69326U 26121B   26154.98411229  .00000122  00000-0  14664-3 0  9991
2 69326  89.0158 301.8507 0018194 228.0170 131.9437 13.60503556   367
Epoch: 2026-06-03T23:37Z
TLE epoch observation values (Epoch: 2026-06-03T23:37:07.301Z)
Latitude
-0.00009°
Longitude
55.13538°
Altitude
1,045.859 km
Speed
7.324 km/s
True Right ascension
20h 07m 24s
True Declination
0° 00' 00"
Sunlit
Object was in full shadow at epoch
Visualization orbit readout
Latitude
Unknown
Longitude
Unknown
Altitude
Unknown
Speed
Unknown
Apparent Right ascension
Unknown
Apparent Declination
Unknown
Sunlit
N/A
Visualization observer readout
Local Sidereal Time
13:23:45
Azimuth
Unknown
Elevation
Unknown
Doppler factor
Unknown
Orbital elements
Apogee altitude
1,044.38 km
Perigee altitude
1,017.42 km
Semi-major axis
7,409.037 km
Eccentricity
0.00182
Inclination
89.0158°
RAAN
301.8507°
Arg. of periapsis
228.017°
True anomaly
132.09854°
Mean anomaly
131.9437°
Eccentric anomaly
132.02114°
Mean motion
3.4033 °/min
Orbital period
105.78 mins
BSTAR
0.00014664
Loading maneuver chart data...
Computing Atmospheric mass density...
Loading historical data...
Loading historical data...
Loading historical data...
Loading historical data...
Loading historical data...
Loading historical data...
Loading historical data...
Other satellites on launch #121 in the year 2026 (2026-06-01 UTC)

Documentation

Showing up to 5 results
|